Des Moines, IA

4:03 PM CDT on July 27, 2017 (GMT -0500)
Des Moines International

Weather History for KDSM - July, 2013

Change the Weather History Date:

Saturday, July 13, 2013

  Actual Average Record
Temperature  
Mean Temperature 75 °F 76 °F  
Max Temperature 82 °F 86 °F 107 °F (1936)
Min Temperature 67 °F 67 °F 51 °F (1950)
Degree Days  
Heating Degree Days 0 0  
Month to date heating degree days 0 0  
Since 1 June heating degree days 19 17  
Since 1 July heating degree days 0 0  
Cooling Degree Days 10 12  
Month to date cooling degree days 155 145  
Year to date cooling degree days 512 442  
Since 1 June cooling degree days 410 366  
Growing Degree Days 24 (Base 50)    
Moisture  
Dew Point 59 °F    
Average Humidity 64    
Maximum Humidity 73    
Minimum Humidity 54    
Precipitation  
Precipitation T in 0.15 in 2.17 in (1992)
Month to date precipitation 0.06 2.00  
Year to date precipitation 21.60 20.12  
Snow  
Snow 0.00 in 0.00 in - ()
Month to date snowfall 0.0 0.0  
Since 1 June snowfall 0.0 0.0  
Since 1 July snowfall 0.0 0.0  
Snow Depth 0.00 in    
Sea Level Pressure  
Sea Level Pressure 30.02 in    
Wind  
Wind Speed 11 mph (SSE)    
Max Wind Speed 17 mph    
Max Gust Speed 23 mph    
Visibility 10 miles    
Events      
T = Trace of Precipitation, MM = Missing Value Source: NWS Daily Summary

Daily Weather History Graph

Daily Weather History Graph

Search for Another Location

Airport or City:

Trip Planner

Search our weather history database for the weather conditions in past years. The results will help you decide how hot, cold, wet, or windy it might be!

Date:

Astronomy

Jul. 13, 2013 Rise Set
Actual Time 5:52 AM CDT 8:48 PM CDT
Civil Twilight 5:19 AM CDT 9:21 PM CDT
Nautical Twilight 4:37 AM CDT 10:02 PM CDT
Astronomical Twilight 3:48 AM CDT 10:51 PM CDT
Moon 11:13 AM CDT (7/13) 11:23 PM CDT (7/13)
Length of Visible Light 16h 01m
Length of Day
14h 55m
Waxing Crescent, 26% of the Moon is Illuminated
Jul 13
Waxing Crescent
Jul 15
First Quarter
Jul 22
Full
Jul 29
Last Quarter
Aug 6
New

Hourly Weather History & Observations

Time (CDT) Temp. Heat Index Dew Point Humidity Pressure Visibility Wind Dir Wind Speed Gust Speed Precip Events Conditions
12:54 AM 71.1 °F - 57.0 °F 61% 30.02 in 10.0 mi SSE 9.2 mph - N/A   Clear
1:54 AM 71.1 °F - 55.9 °F 59% 30.02 in 10.0 mi SSE 9.2 mph - N/A   Partly Cloudy
2:54 AM 68.0 °F - 55.9 °F 65% 30.01 in 10.0 mi SSE 9.2 mph - N/A   Partly Cloudy
3:54 AM 68.0 °F - 55.0 °F 63% 30.01 in 10.0 mi SSE 9.2 mph - N/A   Partly Cloudy
4:54 AM 66.9 °F - 54.0 °F 63% 30.01 in 10.0 mi SSE 8.1 mph - N/A   Scattered Clouds
5:54 AM 66.9 °F - 53.1 °F 61% 30.01 in 10.0 mi SSE 10.4 mph - N/A   Mostly Cloudy
6:54 AM 66.9 °F - 53.1 °F 61% 30.02 in 10.0 mi South 9.2 mph - N/A   Mostly Cloudy
7:54 AM 68.0 °F - 54.0 °F 61% 30.04 in 10.0 mi South 11.5 mph - N/A   Mostly Cloudy
8:54 AM 71.1 °F - 55.9 °F 59% 30.04 in 10.0 mi SSE 13.8 mph - N/A   Overcast
9:54 AM 73.0 °F - 57.9 °F 59% 30.03 in 10.0 mi SSE 13.8 mph - N/A   Overcast
10:54 AM 75.9 °F - 60.1 °F 58% 30.04 in 10.0 mi SSE 13.8 mph - N/A   Overcast
11:54 AM 78.1 °F - 62.1 °F 58% 30.03 in 10.0 mi SSE 13.8 mph - N/A   Overcast
12:54 PM 79.0 °F - 62.1 °F 56% 30.04 in 10.0 mi SE 15.0 mph - N/A   Overcast
1:54 PM 81.0 °F 81.9 °F 62.1 °F 52% 30.04 in 10.0 mi SSE 10.4 mph - N/A   Overcast
2:54 PM 81.0 °F 82.2 °F 63.0 °F 54% 30.03 in 10.0 mi SE 13.8 mph - N/A   Overcast
3:54 PM 81.0 °F 82.5 °F 64.0 °F 56% 30.01 in 10.0 mi SE 16.1 mph - N/A   Overcast
4:54 PM 80.1 °F 81.7 °F 64.0 °F 58% 30.00 in 10.0 mi SSE 15.0 mph - N/A   Overcast
5:54 PM 80.1 °F 81.7 °F 64.0 °F 58% 30.00 in 10.0 mi SE 12.7 mph - N/A   Overcast
6:54 PM 78.1 °F - 64.0 °F 62% 30.01 in 10.0 mi SE 11.5 mph 19.6 mph N/A   Overcast
7:54 PM 75.9 °F - 63.0 °F 64% 30.01 in 10.0 mi SE 12.7 mph - N/A   Overcast
8:54 PM 75.0 °F - 60.1 °F 60% 30.02 in 10.0 mi SE 10.4 mph - N/A   Overcast
9:54 PM 73.9 °F - 60.1 °F 62% 30.04 in 10.0 mi SSE 9.2 mph - N/A   Overcast
10:54 PM 72.0 °F - 62.1 °F 71% 30.04 in 10.0 mi SE 5.8 mph - 0.00 in   Overcast
11:54 PM 72.0 °F - 62.1 °F 71% 30.05 in 10.0 mi SE 5.8 mph - N/A   Overcast